
Distance (Route):
Temperature : 0°C
Humidity : 0%
Pressure : 0hPa| Receiver | Frames | First received | Last received |
|---|---|---|---|
| 9A1FER-3 | 168 | 2026-09-05 11:52:51 | 2026-09-05 12:50:19 |
| 9A1FER-10 | 91 | 2026-09-05 12:00:35 | 2026-09-05 12:47:22 |
| OM5KV | 65 | 2026-09-05 12:01:12 | 2026-09-05 12:07:54 |
| PETON7-10 | 54 | 2026-09-05 12:25:49 | 2026-09-05 12:49:34 |
| HA6NAB-11 | 8 | 2026-09-05 12:15:44 | 2026-09-05 12:16:34 |
| OE3JTB-15 | 2 | 2026-09-05 12:07:55 | 2026-09-05 12:08:26 |
| Receiver | Date | Latitude | Longitude | Direction | Speed | Altitude | Climb | Temperature | Humidity | Pressure | Voltage | Killtimer | Uptime | BKT | XDATA |
|---|---|---|---|---|---|---|---|---|---|---|---|---|---|---|---|
| 9A1FER-3 | 2026-09-05 12:50:19 | 45.94063 | 15.43838 | 69° | 18km/h | 20741m | -20.3m/s | 0°C | 0% | 0hPa | 0V | 00:00:00 | 00:00:00 | 00:00:00 | |
| 9A1FER-3 | 2026-09-05 12:50:01 | 45.94037 | 15.43746 | 78° | 16km/h | 21121m | -20.4m/s | 0°C | 0% | 0hPa | 0V | 00:00:00 | 00:00:00 | 00:00:00 | |
| 9A1FER-3 | 2026-09-05 12:49:45 | 45.94050 | 15.43677 | 26° | 13km/h | 21447m | -20.1m/s | 0°C | 0% | 0hPa | 0V | 00:00:00 | 00:00:00 | 00:00:00 | |
| PETON7-10 | 2026-09-05 12:49:34 | 45.94021 | 15.43644 | 43° | 13km/h | 21686m | -19.8m/s | 0°C | 0% | 0hPa | 0V | 00:00:00 | 00:00:00 | 00:00:00 | |
| 9A1FER-3 | 2026-09-05 12:49:29 | 45.94005 | 15.43631 | 34° | 16km/h | 21789m | -19.6m/s | 0°C | 0% | 0hPa | 0V | 00:00:00 | 00:00:00 | 00:00:00 | |
| PETON7-10 | 2026-09-05 12:49:17 | 45.93995 | 15.43573 | 113° | 15km/h | 22049m | -21.2m/s | 0°C | 0% | 0hPa | 0V | 00:00:00 | 00:00:00 | 00:00:00 | |
| 9A1FER-3 | 2026-09-05 12:49:13 | 45.94006 | 15.43550 | 133° | 15km/h | 22137m | -20.5m/s | 0°C | 0% | 0hPa | 0V | 00:00:00 | 00:00:00 | 00:00:00 | |
| 9A1FER-3 | 2026-09-05 12:48:32 | 45.93958 | 15.43589 | 11° | 20km/h | 23022m | -23.0m/s | 0°C | 0% | 0hPa | 0V | 00:00:00 | 00:00:00 | 00:00:00 | |
| 9A1FER-3 | 2026-09-05 12:48:05 | 45.93850 | 15.43510 | 14° | 15km/h | 23631m | -21.0m/s | 0°C | 0% | 0hPa | 0V | 00:00:00 | 00:00:00 | 00:00:00 | |
| 9A1FER-3 | 2026-09-05 12:47:48 | 45.93792 | 15.43467 | 22° | 15km/h | 24014m | -28.1m/s | 0°C | 0% | 0hPa | 0V | 00:00:00 | 00:00:00 | 00:00:00 | |
| 9A1FER-3 | 2026-09-05 12:47:33 | 45.93754 | 15.43423 | 43° | 16km/h | 24348m | -20.8m/s | 0°C | 0% | 0hPa | 0V | 00:00:00 | 00:00:00 | 00:00:00 | |
| PETON7-10 | 2026-09-05 12:47:32 | 45.93753 | 15.43419 | 58° | 18km/h | 24368m | -18.3m/s | 0°C | 0% | 0hPa | 0V | 00:00:00 | 00:00:00 | 00:00:00 | |
| 9A1FER-10 | 2026-09-05 12:47:22 | 45.93734 | 15.43355 | 20° | 13km/h | 24467m | 5.6m/s | 0°C | 0% | 0hPa | 0V | 00:00:00 | 00:00:00 | 00:00:00 | |
| 9A1FER-3 | 2026-09-05 12:47:18 | 45.93725 | 15.43346 | 86° | 16km/h | 24446m | 7.1m/s | 0°C | 0% | 0hPa | 0V | 00:00:00 | 00:00:00 | 00:00:00 | |
| PETON7-10 | 2026-09-05 12:47:17 | 45.93726 | 15.43341 | 116° | 16km/h | 24439m | 5.9m/s | 0°C | 0% | 0hPa | 0V | 00:00:00 | 00:00:00 | 00:00:00 | |
| 9A1FER-10 | 2026-09-05 12:47:04 | 45.93714 | 15.43282 | 79° | 15km/h | 24369m | 7.0m/s | 0°C | 0% | 0hPa | 0V | 00:00:00 | 00:00:00 | 00:00:00 | |
| 9A1FER-3 | 2026-09-05 12:47:03 | 45.93713 | 15.43276 | 55° | 13km/h | 24362m | 5.8m/s | 0°C | 0% | 0hPa | 0V | 00:00:00 | 00:00:00 | 00:00:00 | |
| PETON7-10 | 2026-09-05 12:47:01 | 45.93706 | 15.43269 | 17° | 11km/h | 24352m | 7.0m/s | 0°C | 0% | 0hPa | 0V | 00:00:00 | 00:00:00 | 00:00:00 | |
| 9A1FER-3 | 2026-09-05 12:46:48 | 45.93690 | 15.43221 | 68° | 13km/h | 24276m | 5.0m/s | 0°C | 0% | 0hPa | 0V | 00:00:00 | 00:00:00 | 00:00:00 | |
| PETON7-10 | 2026-09-05 12:46:46 | 45.93685 | 15.43213 | 45° | 15km/h | 24264m | 6.4m/s | 0°C | 0% | 0hPa | 0V | 00:00:00 | 00:00:00 | 00:00:00 | |
| 9A1FER-10 | 2026-09-05 12:46:44 | 45.93678 | 15.43206 | 21° | 18km/h | 24252m | 7.3m/s | 0°C | 0% | 0hPa | 0V | 00:00:00 | 00:00:00 | 00:00:00 | |
| 9A1FER-3 | 2026-09-05 12:46:33 | 45.93651 | 15.43184 | 12° | 15km/h | 24186m | 6.6m/s | 0°C | 0% | 0hPa | 0V | 00:00:00 | 00:00:00 | 00:00:00 | |
| PETON7-10 | 2026-09-05 12:46:31 | 45.93644 | 15.43182 | 31° | 15km/h | 24174m | 8.1m/s | 0°C | 0% | 0hPa | 0V | 00:00:00 | 00:00:00 | 00:00:00 | |
| 9A1FER-10 | 2026-09-05 12:46:24 | 45.93630 | 15.43163 | 41° | 22km/h | 24131m | 5.0m/s | 0°C | 0% | 0hPa | 0V | 00:00:00 | 00:00:00 | 00:00:00 | |
| 9A1FER-3 | 2026-09-05 12:46:18 | 45.93606 | 15.43150 | 15° | 18km/h | 24095m | 6.8m/s | 0°C | 0% | 0hPa | 0V | 00:00:00 | 00:00:00 | 00:00:00 | |
| PETON7-10 | 2026-09-05 12:46:16 | 45.93596 | 15.43145 | 24° | 16km/h | 24083m | 6.5m/s | 0°C | 0% | 0hPa | 0V | 00:00:00 | 00:00:00 | 00:00:00 | |
| 9A1FER-10 | 2026-09-05 12:46:05 | 45.93546 | 15.43124 | 30° | 7km/h | 24019m | 5.2m/s | 0°C | 0% | 0hPa | 0V | 00:00:00 | 00:00:00 | 00:00:00 | |
| 9A1FER-3 | 2026-09-05 12:46:03 | 45.93542 | 15.43117 | 44° | 13km/h | 24006m | 4.6m/s | 0°C | 0% | 0hPa | 0V | 00:00:00 | 00:00:00 | 00:00:00 | |
| PETON7-10 | 2026-09-05 12:46:00 | 45.93530 | 15.43113 | 345° | 15km/h | 23989m | 4.4m/s | 0°C | 0% | 0hPa | 0V | 00:00:00 | 00:00:00 | 00:00:00 | |
| 9A1FER-10 | 2026-09-05 12:45:50 | 45.93507 | 15.43104 | 37° | 20km/h | 23934m | 6.0m/s | 0°C | 0% | 0hPa | 0V | 00:00:00 | 00:00:00 | 00:00:00 | |
| 9A1FER-3 | 2026-09-05 12:45:48 | 45.93498 | 15.43101 | 4° | 16km/h | 23921m | 6.2m/s | 0°C | 0% | 0hPa | 0V | 00:00:00 | 00:00:00 | 00:00:00 | |
| PETON7-10 | 2026-09-05 12:45:45 | 45.93481 | 15.43094 | 30° | 16km/h | 23904m | 4.6m/s | 0°C | 0% | 0hPa | 0V | 00:00:00 | 00:00:00 | 00:00:00 | |
| 9A1FER-3 | 2026-09-05 12:45:33 | 45.93443 | 15.43066 | 37° | 15km/h | 23835m | 7.3m/s | 0°C | 0% | 0hPa | 0V | 00:00:00 | 00:00:00 | 00:00:00 | |
| PETON7-10 | 2026-09-05 12:45:28 | 45.93438 | 15.43044 | 58° | 16km/h | 23806m | 7.0m/s | 0°C | 0% | 0hPa | 0V | 00:00:00 | 00:00:00 | 00:00:00 | |
| 9A1FER-10 | 2026-09-05 12:45:27 | 45.93436 | 15.43042 | 10° | 16km/h | 23799m | 5.5m/s | 0°C | 0% | 0hPa | 0V | 00:00:00 | 00:00:00 | 00:00:00 | |
| 9A1FER-3 | 2026-09-05 12:45:18 | 45.93410 | 15.43009 | 45° | 16km/h | 23748m | 3.9m/s | 0°C | 0% | 0hPa | 0V | 00:00:00 | 00:00:00 | 00:00:00 | |
| 9A1FER-10 | 2026-09-05 12:45:12 | 45.93385 | 15.42995 | 44° | 16km/h | 23713m | 4.5m/s | 0°C | 0% | 0hPa | 0V | 00:00:00 | 00:00:00 | 00:00:00 | |
| PETON7-10 | 2026-09-05 12:44:53 | 45.93328 | 15.42968 | 351° | 9km/h | 23605m | 4.8m/s | 0°C | 0% | 0hPa | 0V | 00:00:00 | 00:00:00 | 00:00:00 | |
| 9A1FER-10 | 2026-09-05 12:44:52 | 45.93326 | 15.42967 | 18° | 13km/h | 23599m | 6.6m/s | 0°C | 0% | 0hPa | 0V | 00:00:00 | 00:00:00 | 00:00:00 | |
| 9A1FER-3 | 2026-09-05 12:44:48 | 45.93321 | 15.42964 | 321° | 13km/h | 23577m | 4.8m/s | 0°C | 0% | 0hPa | 0V | 00:00:00 | 00:00:00 | 00:00:00 | |
| PETON7-10 | 2026-09-05 12:44:38 | 45.93288 | 15.42961 | 13° | 11km/h | 23521m | 6.5m/s | 0°C | 0% | 0hPa | 0V | 00:00:00 | 00:00:00 | 00:00:00 | |
| 9A1FER-3 | 2026-09-05 12:44:33 | 45.93279 | 15.42968 | 311° | 9km/h | 23491m | 5.2m/s | 0°C | 0% | 0hPa | 0V | 00:00:00 | 00:00:00 | 00:00:00 | |
| 9A1FER-10 | 2026-09-05 12:44:32 | 45.93277 | 15.42970 | 339° | 7km/h | 23486m | 4.7m/s | 0°C | 0% | 0hPa | 0V | 00:00:00 | 00:00:00 | 00:00:00 | |
| PETON7-10 | 2026-09-05 12:44:22 | 45.93259 | 15.42947 | 309° | 11km/h | 23432m | 4.9m/s | 0°C | 0% | 0hPa | 0V | 00:00:00 | 00:00:00 | 00:00:00 | |
| 9A1FER-3 | 2026-09-05 12:44:18 | 45.93260 | 15.42943 | 104° | 13km/h | 23411m | 5.4m/s | 0°C | 0% | 0hPa | 0V | 00:00:00 | 00:00:00 | 00:00:00 | |
| 9A1FER-10 | 2026-09-05 12:44:13 | 45.93254 | 15.42924 | 54° | 16km/h | 23383m | 4.2m/s | 0°C | 0% | 0hPa | 0V | 00:00:00 | 00:00:00 | 00:00:00 | |
| 9A1FER-10 | 2026-09-05 12:43:58 | 45.93211 | 15.42865 | 96° | 16km/h | 23296m | 5.3m/s | 0°C | 0% | 0hPa | 0V | 00:00:00 | 00:00:00 | 00:00:00 | |
| PETON7-10 | 2026-09-05 12:43:51 | 45.93190 | 15.42841 | 48° | 24km/h | 23264m | 4.4m/s | 0°C | 0% | 0hPa | 0V | 00:00:00 | 00:00:00 | 00:00:00 | |
| 9A1FER-3 | 2026-09-05 12:43:45 | 45.93174 | 15.42812 | 39° | 22km/h | 23233m | 6.4m/s | 0°C | 0% | 0hPa | 0V | 00:00:00 | 00:00:00 | 00:00:00 | |
| 9A1FER-10 | 2026-09-05 12:43:40 | 45.93150 | 15.42793 | 52° | 27km/h | 23208m | 4.1m/s | 0°C | 0% | 0hPa | 0V | 00:00:00 | 00:00:00 | 00:00:00 | |
| PETON7-10 | 2026-09-05 12:43:35 | 45.93124 | 15.42764 | 37° | 27km/h | 23183m | 4.5m/s | 0°C | 0% | 0hPa | 0V | 00:00:00 | 00:00:00 | 00:00:00 | |
| 9A1FER-10 | 2026-09-05 12:43:23 | 45.93053 | 15.42710 | 3° | 31km/h | 23119m | 6.8m/s | 0°C | 0% | 0hPa | 0V | 00:00:00 | 00:00:00 | 00:00:00 | |
| PETON7-10 | 2026-09-05 12:43:19 | 45.93029 | 15.42694 | 47° | 33km/h | 23098m | 4.1m/s | 0°C | 0% | 0hPa | 0V | 00:00:00 | 00:00:00 | 00:00:00 | |
| 9A1FER-10 | 2026-09-05 12:43:06 | 45.92938 | 15.42650 | 11° | 24km/h | 23032m | 6.3m/s | 0°C | 0% | 0hPa | 0V | 00:00:00 | 00:00:00 | 00:00:00 | |
| PETON7-10 | 2026-09-05 12:43:04 | 45.92924 | 15.42649 | 5° | 20km/h | 23021m | 5.7m/s | 0°C | 0% | 0hPa | 0V | 00:00:00 | 00:00:00 | 00:00:00 | |
| 9A1FER-3 | 2026-09-05 12:42:59 | 45.92890 | 15.42634 | 29° | 20km/h | 22996m | 5.9m/s | 0°C | 0% | 0hPa | 0V | 00:00:00 | 00:00:00 | 00:00:00 | |
| 9A1FER-10 | 2026-09-05 12:42:51 | 45.92856 | 15.42609 | 39° | 18km/h | 22951m | 5.9m/s | 0°C | 0% | 0hPa | 0V | 00:00:00 | 00:00:00 | 00:00:00 | |
| PETON7-10 | 2026-09-05 12:42:46 | 45.92836 | 15.42590 | 21° | 16km/h | 22924m | 6.3m/s | 0°C | 0% | 0hPa | 0V | 00:00:00 | 00:00:00 | 00:00:00 | |
| 9A1FER-10 | 2026-09-05 12:42:34 | 45.92783 | 15.42572 | 356° | 20km/h | 22860m | 5.4m/s | 0°C | 0% | 0hPa | 0V | 00:00:00 | 00:00:00 | 00:00:00 | |
| PETON7-10 | 2026-09-05 12:42:30 | 45.92765 | 15.42567 | 17° | 18km/h | 22839m | 5.8m/s | 0°C | 0% | 0hPa | 0V | 00:00:00 | 00:00:00 | 00:00:00 | |
| 9A1FER-3 | 2026-09-05 12:42:17 | 45.92714 | 15.42556 | 48° | 13km/h | 22766m | 6.7m/s | 0°C | 0% | 0hPa | 0V | 00:00:00 | 00:00:00 | 00:00:00 | |
| 9A1FER-10 | 2026-09-05 12:42:16 | 45.92712 | 15.42552 | 77° | 11km/h | 22760m | 5.1m/s | 0°C | 0% | 0hPa | 0V | 00:00:00 | 00:00:00 | 00:00:00 | |
| PETON7-10 | 2026-09-05 12:42:15 | 45.92711 | 15.42549 | 62° | 13km/h | 22756m | 3.5m/s | 0°C | 0% | 0hPa | 0V | 00:00:00 | 00:00:00 | 00:00:00 | |
| 9A1FER-10 | 2026-09-05 12:42:01 | 45.92684 | 15.42576 | 319° | 13km/h | 22674m | 5.6m/s | 0°C | 0% | 0hPa | 0V | 00:00:00 | 00:00:00 | 00:00:00 | |
| PETON7-10 | 2026-09-05 12:42:00 | 45.92680 | 15.42582 | 307° | 9km/h | 22669m | 5.3m/s | 0°C | 0% | 0hPa | 0V | 00:00:00 | 00:00:00 | 00:00:00 | |
| 9A1FER-3 | 2026-09-05 12:41:55 | 45.92677 | 15.42592 | 360° | 9km/h | 22640m | 5.6m/s | 0°C | 0% | 0hPa | 0V | 00:00:00 | 00:00:00 | 00:00:00 | |
| PETON7-10 | 2026-09-05 12:41:45 | 45.92666 | 15.42622 | 338° | 13km/h | 22584m | 5.9m/s | 0°C | 0% | 0hPa | 0V | 00:00:00 | 00:00:00 | 00:00:00 | |
| 9A1FER-10 | 2026-09-05 12:41:44 | 45.92664 | 15.42623 | 320° | 13km/h | 22577m | 7.0m/s | 0°C | 0% | 0hPa | 0V | 00:00:00 | 00:00:00 | 00:00:00 | |
| 9A1FER-3 | 2026-09-05 12:41:36 | 45.92661 | 15.42655 | 320° | 15km/h | 22529m | 5.4m/s | 0°C | 0% | 0hPa | 0V | 00:00:00 | 00:00:00 | 00:00:00 | |
| PETON7-10 | 2026-09-05 12:41:29 | 45.92657 | 15.42683 | 252° | 13km/h | 22489m | 4.3m/s | 0°C | 0% | 0hPa | 0V | 00:00:00 | 00:00:00 | 00:00:00 | |
| 9A1FER-10 | 2026-09-05 12:41:23 | 45.92653 | 15.42715 | 304° | 5km/h | 22452m | 7.0m/s | 0°C | 0% | 0hPa | 0V | 00:00:00 | 00:00:00 | 00:00:00 | |
| 9A1FER-3 | 2026-09-05 12:41:21 | 45.92652 | 15.42719 | 238° | 22km/h | 22441m | 6.4m/s | 0°C | 0% | 0hPa | 0V | 00:00:00 | 00:00:00 | 00:00:00 | |
| PETON7-10 | 2026-09-05 12:41:13 | 45.92660 | 15.42740 | 265° | 15km/h | 22398m | 4.9m/s | 0°C | 0% | 0hPa | 0V | 00:00:00 | 00:00:00 | 00:00:00 | |
| PETON7-10 | 2026-09-05 12:35:33 | 45.92664 | 15.41536 | 113° | 16km/h | 20612m | 8.8m/s | 0°C | 0% | 0hPa | 0V | 00:00:00 | 00:00:00 | 00:00:00 | |
| 9A1FER-3 | 2026-09-05 12:35:30 | 45.92669 | 15.41504 | 103° | 20km/h | 20596m | 6.9m/s | 0°C | 0% | 0hPa | 0V | 00:00:00 | 00:00:00 | 00:00:00 | |
| 9A1FER-10 | 2026-09-05 12:34:39 | 45.92669 | 15.40909 | 78° | 27km/h | 20298m | 4.2m/s | 0°C | 0% | 0hPa | 0V | 00:00:00 | 00:00:00 | 00:00:00 | |
| 9A1FER-3 | 2026-09-05 12:34:27 | 45.92641 | 15.40789 | 61° | 26km/h | 20236m | 2.7m/s | 0°C | 0% | 0hPa | 0V | 00:00:00 | 00:00:00 | 00:00:00 | |
| PETON7-10 | 2026-09-05 12:34:24 | 45.92634 | 15.40756 | 86° | 24km/h | 20223m | 4.6m/s | 0°C | 0% | 0hPa | 0V | 00:00:00 | 00:00:00 | 00:00:00 | |
| 9A1FER-3 | 2026-09-05 12:34:12 | 45.92625 | 15.40655 | 86° | 22km/h | 20166m | 4.9m/s | 0°C | 0% | 0hPa | 0V | 00:00:00 | 00:00:00 | 00:00:00 | |
| PETON7-10 | 2026-09-05 12:34:08 | 45.92622 | 15.40619 | 85° | 22km/h | 20145m | 4.4m/s | 0°C | 0% | 0hPa | 0V | 00:00:00 | 00:00:00 | 00:00:00 | |
| 9A1FER-3 | 2026-09-05 12:33:57 | 45.92629 | 15.40541 | 95° | 27km/h | 20092m | 5.9m/s | 0°C | 0% | 0hPa | 0V | 00:00:00 | 00:00:00 | 00:00:00 | |
| PETON7-10 | 2026-09-05 12:33:51 | 45.92634 | 15.40489 | 97° | 27km/h | 20061m | 4.7m/s | 0°C | 0% | 0hPa | 0V | 00:00:00 | 00:00:00 | 00:00:00 | |
| 9A1FER-10 | 2026-09-05 12:33:42 | 45.92635 | 15.40403 | 78° | 29km/h | 20014m | 5.4m/s | 0°C | 0% | 0hPa | 0V | 00:00:00 | 00:00:00 | 00:00:00 | |
| 9A1FER-3 | 2026-09-05 12:33:39 | 45.92629 | 15.40374 | 72° | 29km/h | 20000m | 4.6m/s | 0°C | 0% | 0hPa | 0V | 00:00:00 | 00:00:00 | 00:00:00 | |
| PETON7-10 | 2026-09-05 12:33:36 | 45.92628 | 15.40342 | 99° | 27km/h | 19986m | 3.7m/s | 0°C | 0% | 0hPa | 0V | 00:00:00 | 00:00:00 | 00:00:00 | |
| 9A1FER-3 | 2026-09-05 12:33:24 | 45.92610 | 15.40225 | 80° | 27km/h | 19924m | 5.3m/s | 0°C | 0% | 0hPa | 0V | 00:00:00 | 00:00:00 | 00:00:00 | |
| PETON7-10 | 2026-09-05 12:33:21 | 45.92606 | 15.40191 | 86° | 27km/h | 19908m | 4.0m/s | 0°C | 0% | 0hPa | 0V | 00:00:00 | 00:00:00 | 00:00:00 | |
| 9A1FER-10 | 2026-09-05 12:33:17 | 45.92602 | 15.40157 | 82° | 27km/h | 19888m | 5.6m/s | 0°C | 0% | 0hPa | 0V | 00:00:00 | 00:00:00 | 00:00:00 | |
| 9A1FER-3 | 2026-09-05 12:33:09 | 45.92601 | 15.40076 | 107° | 29km/h | 19848m | 3.7m/s | 0°C | 0% | 0hPa | 0V | 00:00:00 | 00:00:00 | 00:00:00 | |
| PETON7-10 | 2026-09-05 12:33:03 | 45.92600 | 15.40019 | 84° | 33km/h | 19816m | 5.9m/s | 0°C | 0% | 0hPa | 0V | 00:00:00 | 00:00:00 | 00:00:00 | |
| 9A1FER-3 | 2026-09-05 12:32:54 | 45.92604 | 15.39921 | 88° | 31km/h | 19771m | 4.0m/s | 0°C | 0% | 0hPa | 0V | 00:00:00 | 00:00:00 | 00:00:00 | |
| PETON7-10 | 2026-09-05 12:32:48 | 45.92588 | 15.39856 | 81° | 31km/h | 19741m | 5.7m/s | 0°C | 0% | 0hPa | 0V | 00:00:00 | 00:00:00 | 00:00:00 | |
| 9A1FER-3 | 2026-09-05 12:32:39 | 45.92573 | 15.39756 | 79° | 33km/h | 19693m | 5.0m/s | 0°C | 0% | 0hPa | 0V | 00:00:00 | 00:00:00 | 00:00:00 | |
| PETON7-10 | 2026-09-05 12:32:33 | 45.92560 | 15.39691 | 67° | 33km/h | 19661m | 6.8m/s | 0°C | 0% | 0hPa | 0V | 00:00:00 | 00:00:00 | 00:00:00 | |
| 9A1FER-3 | 2026-09-05 12:32:21 | 45.92522 | 15.39563 | 54° | 35km/h | 19595m | 4.1m/s | 0°C | 0% | 0hPa | 0V | 00:00:00 | 00:00:00 | 00:00:00 | |
| PETON7-10 | 2026-09-05 12:32:18 | 45.92512 | 15.39533 | 70° | 37km/h | 19578m | 6.5m/s | 0°C | 0% | 0hPa | 0V | 00:00:00 | 00:00:00 | 00:00:00 | |
| 9A1FER-3 | 2026-09-05 12:32:06 | 45.92443 | 15.39408 | 56° | 33km/h | 19511m | 6.5m/s | 0°C | 0% | 0hPa | 0V | 00:00:00 | 00:00:00 | 00:00:00 | |
| PETON7-10 | 2026-09-05 12:32:03 | 45.92425 | 15.39379 | 37° | 33km/h | 19495m | 6.0m/s | 0°C | 0% | 0hPa | 0V | 00:00:00 | 00:00:00 | 00:00:00 | |
| 9A1FER-3 | 2026-09-05 12:31:51 | 45.92361 | 15.39277 | 47° | 29km/h | 19428m | 3.8m/s | 0°C | 0% | 0hPa | 0V | 00:00:00 | 00:00:00 | 00:00:00 | |
| PETON7-10 | 2026-09-05 12:31:46 | 45.92339 | 15.39235 | 59° | 27km/h | 19398m | 5.4m/s | 0°C | 0% | 0hPa | 0V | 00:00:00 | 00:00:00 | 00:00:00 | |
| 9A1FER-3 | 2026-09-05 12:31:36 | 45.92284 | 15.39166 | 41° | 26km/h | 19340m | 6.5m/s | 0°C | 0% | 0hPa | 0V | 00:00:00 | 00:00:00 | 00:00:00 | |
| PETON7-10 | 2026-09-05 12:31:31 | 45.92258 | 15.39137 | 26° | 26km/h | 19314m | 7.5m/s | 0°C | 0% | 0hPa | 0V | 00:00:00 | 00:00:00 | 00:00:00 | |
| 9A1FER-3 | 2026-09-05 12:31:21 | 45.92206 | 15.39086 | 29° | 26km/h | 19259m | 6.8m/s | 0°C | 0% | 0hPa | 0V | 00:00:00 | 00:00:00 | 00:00:00 | |
| PETON7-10 | 2026-09-05 12:31:16 | 45.92177 | 15.39065 | 34° | 22km/h | 19233m | 6.6m/s | 0°C | 0% | 0hPa | 0V | 00:00:00 | 00:00:00 | 00:00:00 | |
| 9A1FER-3 | 2026-09-05 12:31:06 | 45.92132 | 15.39008 | 29° | 18km/h | 19171m | 3.4m/s | 0°C | 0% | 0hPa | 0V | 00:00:00 | 00:00:00 | 00:00:00 | |
| 9A1FER-3 | 2026-09-05 12:30:46 | 45.92070 | 15.38914 | 41° | 18km/h | 19068m | 6.4m/s | 0°C | 0% | 0hPa | 0V | 00:00:00 | 00:00:00 | 00:00:00 | |
| PETON7-10 | 2026-09-05 12:30:40 | 45.92054 | 15.38887 | 71° | 16km/h | 19036m | 6.1m/s | 0°C | 0% | 0hPa | 0V | 00:00:00 | 00:00:00 | 00:00:00 | |
| 9A1FER-3 | 2026-09-05 12:30:31 | 45.92047 | 15.38828 | 80° | 15km/h | 18987m | 4.2m/s | 0°C | 0% | 0hPa | 0V | 00:00:00 | 00:00:00 | 00:00:00 | |
| PETON7-10 | 2026-09-05 12:30:25 | 45.92044 | 15.38799 | 83° | 16km/h | 18956m | 5.2m/s | 0°C | 0% | 0hPa | 0V | 00:00:00 | 00:00:00 | 00:00:00 | |
| 9A1FER-3 | 2026-09-05 12:30:17 | 45.92047 | 15.38756 | 113° | 22km/h | 18913m | 4.4m/s | 0°C | 0% | 0hPa | 0V | 00:00:00 | 00:00:00 | 00:00:00 | |
| 9A1FER-10 | 2026-09-05 12:30:10 | 45.92058 | 15.38715 | 125° | 27km/h | 18887m | 4.6m/s | 0°C | 0% | 0hPa | 0V | 00:00:00 | 00:00:00 | 00:00:00 | |
| PETON7-10 | 2026-09-05 12:30:06 | 45.92069 | 15.38686 | 118° | 26km/h | 18867m | 6.4m/s | 0°C | 0% | 0hPa | 0V | 00:00:00 | 00:00:00 | 00:00:00 | |
| 9A1FER-3 | 2026-09-05 12:30:01 | 45.92081 | 15.38644 | 111° | 26km/h | 18842m | 5.9m/s | 0°C | 0% | 0hPa | 0V | 00:00:00 | 00:00:00 | 00:00:00 | |
| PETON7-10 | 2026-09-05 12:29:50 | 45.92098 | 15.38548 | 88° | 29km/h | 18787m | 4.1m/s | 0°C | 0% | 0hPa | 0V | 00:00:00 | 00:00:00 | 00:00:00 | |
| 9A1FER-10 | 2026-09-05 12:29:48 | 45.92099 | 15.38528 | 102° | 27km/h | 18777m | 4.7m/s | 0°C | 0% | 0hPa | 0V | 00:00:00 | 00:00:00 | 00:00:00 | |
| 9A1FER-3 | 2026-09-05 12:29:46 | 45.92101 | 15.38509 | 94° | 29km/h | 18766m | 5.0m/s | 0°C | 0% | 0hPa | 0V | 00:00:00 | 00:00:00 | 00:00:00 | |
| PETON7-10 | 2026-09-05 12:29:35 | 45.92105 | 15.38396 | 88° | 29km/h | 18713m | 3.5m/s | 0°C | 0% | 0hPa | 0V | 00:00:00 | 00:00:00 | 00:00:00 | |
| 9A1FER-3 | 2026-09-05 12:29:31 | 45.92104 | 15.38349 | 86° | 26km/h | 18695m | 6.7m/s | 0°C | 0% | 0hPa | 0V | 00:00:00 | 00:00:00 | 00:00:00 | |
| 9A1FER-10 | 2026-09-05 12:29:27 | 45.92100 | 15.38312 | 65° | 24km/h | 18675m | 4.7m/s | 0°C | 0% | 0hPa | 0V | 00:00:00 | 00:00:00 | 00:00:00 | |
| PETON7-10 | 2026-09-05 12:29:20 | 45.92095 | 15.38249 | 90° | 22km/h | 18641m | 2.9m/s | 0°C | 0% | 0hPa | 0V | 00:00:00 | 00:00:00 | 00:00:00 | |
| 9A1FER-3 | 2026-09-05 12:29:16 | 45.92097 | 15.38215 | 105° | 20km/h | 18622m | 4.3m/s | 0°C | 0% | 0hPa | 0V | 00:00:00 | 00:00:00 | 00:00:00 | |
| 9A1FER-10 | 2026-09-05 12:29:10 | 45.92098 | 15.38169 | 95° | 24km/h | 18592m | 7.5m/s | 0°C | 0% | 0hPa | 0V | 00:00:00 | 00:00:00 | 00:00:00 | |
| PETON7-10 | 2026-09-05 12:29:05 | 45.92106 | 15.38136 | 103° | 22km/h | 18567m | 5.5m/s | 0°C | 0% | 0hPa | 0V | 00:00:00 | 00:00:00 | 00:00:00 | |
| 9A1FER-3 | 2026-09-05 12:29:01 | 45.92108 | 15.38106 | 113° | 27km/h | 18548m | 4.1m/s | 0°C | 0% | 0hPa | 0V | 00:00:00 | 00:00:00 | 00:00:00 | |
| PETON7-10 | 2026-09-05 12:28:30 | 45.92229 | 15.37895 | 148° | 33km/h | 18404m | 4.1m/s | 0°C | 0% | 0hPa | 0V | 00:00:00 | 00:00:00 | 00:00:00 | |
| 9A1FER-3 | 2026-09-05 12:28:23 | 45.92276 | 15.37834 | 145° | 33km/h | 18366m | 5.6m/s | 0°C | 0% | 0hPa | 0V | 00:00:00 | 00:00:00 | 00:00:00 | |
| PETON7-10 | 2026-09-05 12:28:14 | 45.92317 | 15.37757 | 115° | 37km/h | 18323m | 4.4m/s | 0°C | 0% | 0hPa | 0V | 00:00:00 | 00:00:00 | 00:00:00 | |
| 9A1FER-10 | 2026-09-05 12:28:10 | 45.92336 | 15.37717 | 121° | 37km/h | 18304m | 4.3m/s | 0°C | 0% | 0hPa | 0V | 00:00:00 | 00:00:00 | 00:00:00 | |
| 9A1FER-3 | 2026-09-05 12:28:07 | 45.92349 | 15.37686 | 121° | 38km/h | 18290m | 4.7m/s | 0°C | 0% | 0hPa | 0V | 00:00:00 | 00:00:00 | 00:00:00 | |
| 9A1FER-10 | 2026-09-05 12:27:55 | 45.92392 | 15.37531 | 107° | 42km/h | 18229m | 4.6m/s | 0°C | 0% | 0hPa | 0V | 00:00:00 | 00:00:00 | 00:00:00 | |
| PETON7-10 | 2026-09-05 12:27:54 | 45.92395 | 15.37519 | 108° | 40km/h | 18224m | 5.1m/s | 0°C | 0% | 0hPa | 0V | 00:00:00 | 00:00:00 | 00:00:00 | |
| 9A1FER-3 | 2026-09-05 12:27:52 | 45.92401 | 15.37494 | 112° | 38km/h | 18215m | 4.0m/s | 0°C | 0% | 0hPa | 0V | 00:00:00 | 00:00:00 | 00:00:00 | |
| 9A1FER-10 | 2026-09-05 12:27:40 | 45.92421 | 15.37335 | 105° | 31km/h | 18154m | 5.7m/s | 0°C | 0% | 0hPa | 0V | 00:00:00 | 00:00:00 | 00:00:00 | |
| 9A1FER-3 | 2026-09-05 12:27:37 | 45.92425 | 15.37286 | 88° | 31km/h | 18141m | 3.5m/s | 0°C | 0% | 0hPa | 0V | 00:00:00 | 00:00:00 | 00:00:00 | |
| PETON7-10 | 2026-09-05 12:27:36 | 45.92424 | 15.37269 | 90° | 33km/h | 18137m | 3.7m/s | 0°C | 0% | 0hPa | 0V | 00:00:00 | 00:00:00 | 00:00:00 | |
| 9A1FER-10 | 2026-09-05 12:27:24 | 45.92433 | 15.37138 | 96° | 26km/h | 18080m | 4.0m/s | 0°C | 0% | 0hPa | 0V | 00:00:00 | 00:00:00 | 00:00:00 | |
| 9A1FER-3 | 2026-09-05 12:27:22 | 45.92434 | 15.37119 | 88° | 26km/h | 18069m | 5.1m/s | 0°C | 0% | 0hPa | 0V | 00:00:00 | 00:00:00 | 00:00:00 | |
| PETON7-10 | 2026-09-05 12:27:20 | 45.92434 | 15.37104 | 98° | 26km/h | 18057m | 5.0m/s | 0°C | 0% | 0hPa | 0V | 00:00:00 | 00:00:00 | 00:00:00 | |
| 9A1FER-3 | 2026-09-05 12:27:07 | 45.92419 | 15.36989 | 86° | 24km/h | 17990m | 4.4m/s | 0°C | 0% | 0hPa | 0V | 00:00:00 | 00:00:00 | 00:00:00 | |
| 9A1FER-10 | 2026-09-05 12:27:02 | 45.92412 | 15.36949 | 81° | 26km/h | 17964m | 3.7m/s | 0°C | 0% | 0hPa | 0V | 00:00:00 | 00:00:00 | 00:00:00 | |
| 9A1FER-3 | 2026-09-05 12:26:52 | 45.92388 | 15.36868 | 72° | 24km/h | 17911m | 5.5m/s | 0°C | 0% | 0hPa | 0V | 00:00:00 | 00:00:00 | 00:00:00 | |
| 9A1FER-10 | 2026-09-05 12:26:46 | 45.92376 | 15.36815 | 72° | 20km/h | 17881m | 6.6m/s | 0°C | 0% | 0hPa | 0V | 00:00:00 | 00:00:00 | 00:00:00 | |
| 9A1FER-3 | 2026-09-05 12:26:37 | 45.92367 | 15.36740 | 79° | 22km/h | 17834m | 6.0m/s | 0°C | 0% | 0hPa | 0V | 00:00:00 | 00:00:00 | 00:00:00 | |
| 9A1FER-10 | 2026-09-05 12:26:28 | 45.92367 | 15.36668 | 96° | 20km/h | 17780m | 4.2m/s | 0°C | 0% | 0hPa | 0V | 00:00:00 | 00:00:00 | 00:00:00 | |
| PETON7-10 | 2026-09-05 12:26:25 | 45.92365 | 15.36647 | 72° | 18km/h | 17766m | 3.7m/s | 0°C | 0% | 0hPa | 0V | 00:00:00 | 00:00:00 | 00:00:00 | |
| 9A1FER-3 | 2026-09-05 12:26:22 | 45.92366 | 15.36624 | 107° | 20km/h | 17750m | 6.4m/s | 0°C | 0% | 0hPa | 0V | 00:00:00 | 00:00:00 | 00:00:00 | |
| 9A1FER-10 | 2026-09-05 12:26:10 | 45.92373 | 15.36547 | 95° | 27km/h | 17687m | 5.8m/s | 0°C | 0% | 0hPa | 0V | 00:00:00 | 00:00:00 | 00:00:00 | |
| 9A1FER-3 | 2026-09-05 12:26:07 | 45.92378 | 15.36520 | 97° | 29km/h | 17670m | 5.4m/s | 0°C | 0% | 0hPa | 0V | 00:00:00 | 00:00:00 | 00:00:00 | |
| PETON7-10 | 2026-09-05 12:26:06 | 45.92378 | 15.36511 | 97° | 29km/h | 17665m | 4.4m/s | 0°C | 0% | 0hPa | 0V | 00:00:00 | 00:00:00 | 00:00:00 | |
| 9A1FER-3 | 2026-09-05 12:25:52 | 45.92408 | 15.36370 | 108° | 37km/h | 17592m | 5.3m/s | 0°C | 0% | 0hPa | 0V | 00:00:00 | 00:00:00 | 00:00:00 | |
| 9A1FER-10 | 2026-09-05 12:25:51 | 45.92410 | 15.36360 | 116° | 33km/h | 17587m | 4.9m/s | 0°C | 0% | 0hPa | 0V | 00:00:00 | 00:00:00 | 00:00:00 | |
| PETON7-10 | 2026-09-05 12:25:49 | 45.92417 | 15.36338 | 112° | 42km/h | 17578m | 6.9m/s | 0°C | 0% | 0hPa | 0V | 00:00:00 | 00:00:00 | 00:00:00 | |
| 9A1FER-3 | 2026-09-05 12:25:37 | 45.92464 | 15.36197 | 119° | 57km/h | 17511m | 6.3m/s | 0°C | 0% | 0hPa | 0V | 00:00:00 | 00:00:00 | 00:00:00 | |
| 9A1FER-10 | 2026-09-05 12:25:08 | 45.92640 | 15.35661 | 109° | 62km/h | 17346m | 6.9m/s | 0°C | 0% | 0hPa | 0V | 00:00:00 | 00:00:00 | 00:00:00 | |
| 9A1FER-3 | 2026-09-05 12:25:01 | 45.92681 | 15.35518 | 118° | 58km/h | 17310m | 4.2m/s | 0°C | 0% | 0hPa | 0V | 00:00:00 | 00:00:00 | 00:00:00 | |
| 9A1FER-10 | 2026-09-05 12:24:53 | 45.92721 | 15.35355 | 107° | 58km/h | 17267m | 5.3m/s | 0°C | 0% | 0hPa | 0V | 00:00:00 | 00:00:00 | 00:00:00 | |
| 9A1FER-3 | 2026-09-05 12:24:46 | 45.92749 | 15.35219 | 102° | 60km/h | 17231m | 6.0m/s | 0°C | 0% | 0hPa | 0V | 00:00:00 | 00:00:00 | 00:00:00 | |
| 9A1FER-10 | 2026-09-05 12:24:35 | 45.92786 | 15.34992 | 103° | 66km/h | 17173m | 6.3m/s | 0°C | 0% | 0hPa | 0V | 00:00:00 | 00:00:00 | 00:00:00 | |
| 9A1FER-3 | 2026-09-05 12:24:31 | 45.92799 | 15.34900 | 94° | 60km/h | 17154m | 3.9m/s | 0°C | 0% | 0hPa | 0V | 00:00:00 | 00:00:00 | 00:00:00 | |
| 9A1FER-3 | 2026-09-05 12:24:16 | 45.92834 | 15.34582 | 102° | 68km/h | 17074m | 3.8m/s | 0°C | 0% | 0hPa | 0V | 00:00:00 | 00:00:00 | 00:00:00 | |
| 9A1FER-3 | 2026-09-05 12:24:01 | 45.92878 | 15.34223 | 98° | 73km/h | 17002m | 6.3m/s | 0°C | 0% | 0hPa | 0V | 00:00:00 | 00:00:00 | 00:00:00 | |
| 9A1FER-3 | 2026-09-05 12:23:46 | 45.92904 | 15.33830 | 94° | 69km/h | 16927m | 6.9m/s | 0°C | 0% | 0hPa | 0V | 00:00:00 | 00:00:00 | 00:00:00 | |
| 9A1FER-10 | 2026-09-05 12:23:45 | 45.92905 | 15.33805 | 95° | 69km/h | 16921m | 5.2m/s | 0°C | 0% | 0hPa | 0V | 00:00:00 | 00:00:00 | 00:00:00 | |
| 9A1FER-3 | 2026-09-05 12:23:31 | 45.92918 | 15.33458 | 91° | 68km/h | 16853m | 3.7m/s | 0°C | 0% | 0hPa | 0V | 00:00:00 | 00:00:00 | 00:00:00 | |
| 9A1FER-3 | 2026-09-05 12:23:16 | 45.92929 | 15.33090 | 90° | 68km/h | 16778m | 3.7m/s | 0°C | 0% | 0hPa | 0V | 00:00:00 | 00:00:00 | 00:00:00 | |
| 9A1FER-10 | 2026-09-05 12:23:03 | 45.92946 | 15.32766 | 90° | 68km/h | 16711m | 5.4m/s | 0°C | 0% | 0hPa | 0V | 00:00:00 | 00:00:00 | 00:00:00 | |
| 9A1FER-3 | 2026-09-05 12:23:00 | 45.92947 | 15.32698 | 97° | 62km/h | 16698m | 3.0m/s | 0°C | 0% | 0hPa | 0V | 00:00:00 | 00:00:00 | 00:00:00 | |
| 9A1FER-3 | 2026-09-05 12:22:45 | 45.92945 | 15.32363 | 86° | 64km/h | 16624m | 3.1m/s | 0°C | 0% | 0hPa | 0V | 00:00:00 | 00:00:00 | 00:00:00 | |
| 9A1FER-3 | 2026-09-05 12:22:30 | 45.92935 | 15.32017 | 89° | 66km/h | 16545m | 4.8m/s | 0°C | 0% | 0hPa | 0V | 00:00:00 | 00:00:00 | 00:00:00 | |
| 9A1FER-3 | 2026-09-05 12:22:16 | 45.92944 | 15.31662 | 95° | 73km/h | 16474m | 5.1m/s | 0°C | 0% | 0hPa | 0V | 00:00:00 | 00:00:00 | 00:00:00 | |
| 9A1FER-3 | 2026-09-05 12:22:00 | 45.92992 | 15.31274 | 101° | 73km/h | 16388m | 2.8m/s | 0°C | 0% | 0hPa | 0V | 00:00:00 | 00:00:00 | 00:00:00 | |
| 9A1FER-3 | 2026-09-05 12:21:45 | 45.93041 | 15.30886 | 100° | 69km/h | 16306m | 5.4m/s | 0°C | 0% | 0hPa | 0V | 00:00:00 | 00:00:00 | 00:00:00 | |
| 9A1FER-10 | 2026-09-05 12:21:40 | 45.93048 | 15.30766 | 96° | 68km/h | 16280m | 4.3m/s | 0°C | 0% | 0hPa | 0V | 00:00:00 | 00:00:00 | 00:00:00 | |
| 9A1FER-3 | 2026-09-05 12:21:30 | 45.93062 | 15.30510 | 90° | 68km/h | 16216m | 4.6m/s | 0°C | 0% | 0hPa | 0V | 00:00:00 | 00:00:00 | 00:00:00 | |
| 9A1FER-10 | 2026-09-05 12:21:25 | 45.93066 | 15.30385 | 94° | 77km/h | 16190m | 4.7m/s | 0°C | 0% | 0hPa | 0V | 00:00:00 | 00:00:00 | 00:00:00 | |
| 9A1FER-3 | 2026-09-05 12:21:15 | 45.93064 | 15.30139 | 91° | 68km/h | 16138m | 2.9m/s | 0°C | 0% | 0hPa | 0V | 00:00:00 | 00:00:00 | 00:00:00 | |
| 9A1FER-3 | 2026-09-05 12:21:00 | 45.93072 | 15.29775 | 97° | 80km/h | 16044m | 7.1m/s | 0°C | 0% | 0hPa | 0V | 00:00:00 | 00:00:00 | 00:00:00 | |
| 9A1FER-3 | 2026-09-05 12:20:02 | 45.93267 | 15.28153 | 99° | 86km/h | 15705m | 2.3m/s | 0°C | 0% | 0hPa | 0V | 00:00:00 | 00:00:00 | 00:00:00 | |
| 9A1FER-3 | 2026-09-05 12:19:47 | 45.93320 | 15.27693 | 97° | 88km/h | 15625m | 5.9m/s | 0°C | 0% | 0hPa | 0V | 00:00:00 | 00:00:00 | 00:00:00 | |
| 9A1FER-10 | 2026-09-05 12:19:37 | 45.93358 | 15.27381 | 98° | 80km/h | 15575m | 3.2m/s | 0°C | 0% | 0hPa | 0V | 00:00:00 | 00:00:00 | 00:00:00 | |
| 9A1FER-3 | 2026-09-05 12:19:32 | 45.93374 | 15.27228 | 97° | 78km/h | 15546m | 10.8m/s | 0°C | 0% | 0hPa | 0V | 00:00:00 | 00:00:00 | 00:00:00 | |
| 9A1FER-10 | 2026-09-05 12:19:20 | 45.93417 | 15.26884 | 92° | 80km/h | 15481m | 5.9m/s | 0°C | 0% | 0hPa | 0V | 00:00:00 | 00:00:00 | 00:00:00 | |
| 9A1FER-3 | 2026-09-05 12:19:16 | 45.93403 | 15.26773 | 93° | 82km/h | 15457m | 5.8m/s | 0°C | 0% | 0hPa | 0V | 00:00:00 | 00:00:00 | 00:00:00 | |
| 9A1FER-3 | 2026-09-05 12:19:01 | 45.93427 | 15.26324 | 90° | 82km/h | 15380m | 3.1m/s | 0°C | 0% | 0hPa | 0V | 00:00:00 | 00:00:00 | 00:00:00 | |
| 9A1FER-10 | 2026-09-05 12:18:58 | 45.93428 | 15.26231 | 91° | 82km/h | 15366m | 5.9m/s | 0°C | 0% | 0hPa | 0V | 00:00:00 | 00:00:00 | 00:00:00 | |
| 9A1FER-3 | 2026-09-05 12:18:46 | 45.93435 | 15.25875 | 88° | 82km/h | 15310m | 5.4m/s | 0°C | 0% | 0hPa | 0V | 00:00:00 | 00:00:00 | 00:00:00 | |
| 9A1FER-10 | 2026-09-05 12:18:43 | 45.93432 | 15.25788 | 93° | 80km/h | 15297m | 3.0m/s | 0°C | 0% | 0hPa | 0V | 00:00:00 | 00:00:00 | 00:00:00 | |
| 9A1FER-3 | 2026-09-05 12:18:31 | 45.93437 | 15.25431 | 103° | 78km/h | 15241m | 3.4m/s | 0°C | 0% | 0hPa | 0V | 00:00:00 | 00:00:00 | 00:00:00 | |
| 9A1FER-10 | 2026-09-05 12:18:27 | 45.93445 | 15.25319 | 89° | 77km/h | 15221m | 5.2m/s | 0°C | 0% | 0hPa | 0V | 00:00:00 | 00:00:00 | 00:00:00 | |
| 9A1FER-3 | 2026-09-05 12:18:16 | 45.93449 | 15.25006 | 87° | 77km/h | 15168m | 3.6m/s | 0°C | 0% | 0hPa | 0V | 00:00:00 | 00:00:00 | 00:00:00 | |
| 9A1FER-10 | 2026-09-05 12:18:10 | 45.93448 | 15.24841 | 92° | 78km/h | 15139m | 2.7m/s | 0°C | 0% | 0hPa | 0V | 00:00:00 | 00:00:00 | 00:00:00 | |
| 9A1FER-3 | 2026-09-05 12:18:01 | 45.93456 | 15.24590 | 92° | 78km/h | 15094m | 4.0m/s | 0°C | 0% | 0hPa | 0V | 00:00:00 | 00:00:00 | 00:00:00 | |
| 9A1FER-10 | 2026-09-05 12:17:53 | 45.93468 | 15.24358 | 102° | 80km/h | 15053m | 3.6m/s | 0°C | 0% | 0hPa | 0V | 00:00:00 | 00:00:00 | 00:00:00 | |
| 9A1FER-3 | 2026-09-05 12:17:46 | 45.93478 | 15.24163 | 97° | 84km/h | 15023m | 4.9m/s | 0°C | 0% | 0hPa | 0V | 00:00:00 | 00:00:00 | 00:00:00 | |
| 9A1FER-3 | 2026-09-05 12:17:31 | 45.93534 | 15.23719 | 102° | 84km/h | 14956m | 6.3m/s | 0°C | 0% | 0hPa | 0V | 00:00:00 | 00:00:00 | 00:00:00 | |
| 9A1FER-3 | 2026-09-05 12:17:16 | 45.93560 | 15.23265 | 88° | 86km/h | 14884m | 2.3m/s | 0°C | 0% | 0hPa | 0V | 00:00:00 | 00:00:00 | 00:00:00 | |
| 9A1FER-3 | 2026-09-05 12:17:01 | 45.93609 | 15.22807 | 107° | 91km/h | 14805m | 8.1m/s | 0°C | 0% | 0hPa | 0V | 00:00:00 | 00:00:00 | 00:00:00 | |
| HA6NAB-11 | 2026-09-05 12:16:34 | 45.93754 | 15.21923 | 104° | 97km/h | 14644m | 6.2m/s | 0°C | 0% | 0hPa | 0V | 00:00:00 | 00:00:00 | 00:00:00 | |
| 9A1FER-10 | 2026-09-05 12:16:31 | 45.93769 | 15.21830 | 101° | 91km/h | 14625m | 4.3m/s | 0°C | 0% | 0hPa | 0V | 00:00:00 | 00:00:00 | 00:00:00 | |
| HA6NAB-11 | 2026-09-05 12:16:28 | 45.93788 | 15.21746 | 111° | 89km/h | 14610m | 5.4m/s | 0°C | 0% | 0hPa | 0V | 00:00:00 | 00:00:00 | 00:00:00 | |
| HA6NAB-11 | 2026-09-05 12:16:22 | 45.93818 | 15.21538 | 96° | 91km/h | 14574m | 7.6m/s | 0°C | 0% | 0hPa | 0V | 00:00:00 | 00:00:00 | 00:00:00 | |
| HA6NAB-11 | 2026-09-05 12:16:17 | 45.93847 | 15.21385 | 111° | 97km/h | 14544m | 6.3m/s | 0°C | 0% | 0hPa | 0V | 00:00:00 | 00:00:00 | 00:00:00 | |
| 9A1FER-3 | 2026-09-05 12:16:16 | 45.93855 | 15.21352 | 109° | 108km/h | 14536m | 10.5m/s | 0°C | 0% | 0hPa | 0V | 00:00:00 | 00:00:00 | 00:00:00 | |
| HA6NAB-11 | 2026-09-05 12:16:12 | 45.93886 | 15.21210 | 109° | 104km/h | 14505m | 4.8m/s | 0°C | 0% | 0hPa | 0V | 00:00:00 | 00:00:00 | 00:00:00 | |
| HA6NAB-11 | 2026-09-05 12:16:06 | 45.93932 | 15.20975 | 108° | 122km/h | 14467m | 6.5m/s | 0°C | 0% | 0hPa | 0V | 00:00:00 | 00:00:00 | 00:00:00 | |
| 9A1FER-3 | 2026-09-05 12:16:01 | 45.93970 | 15.20784 | 106° | 113km/h | 14435m | 6.4m/s | 0°C | 0% | 0hPa | 0V | 00:00:00 | 00:00:00 | 00:00:00 | |
| 9A1FER-10 | 2026-09-05 12:15:55 | 45.94020 | 15.20542 | 110° | 115km/h | 14399m | 4.7m/s | 0°C | 0% | 0hPa | 0V | 00:00:00 | 00:00:00 | 00:00:00 | |
| HA6NAB-11 | 2026-09-05 12:15:50 | 45.94053 | 15.20350 | 100° | 108km/h | 14370m | 6.9m/s | 0°C | 0% | 0hPa | 0V | 00:00:00 | 00:00:00 | 00:00:00 | |
| 9A1FER-3 | 2026-09-05 12:15:46 | 45.94073 | 15.20186 | 103° | 117km/h | 14344m | 8.0m/s | 0°C | 0% | 0hPa | 0V | 00:00:00 | 00:00:00 | 00:00:00 | |
| HA6NAB-11 | 2026-09-05 12:15:44 | 45.94084 | 15.20108 | 102° | 111km/h | 14333m | 7.2m/s | 0°C | 0% | 0hPa | 0V | 00:00:00 | 00:00:00 | 00:00:00 | |
| 9A1FER-10 | 2026-09-05 12:15:41 | 45.94104 | 15.19943 | 99° | 120km/h | 14305m | 4.6m/s | 0°C | 0% | 0hPa | 0V | 00:00:00 | 00:00:00 | 00:00:00 | |
| 9A1FER-3 | 2026-09-05 12:15:31 | 45.94140 | 15.19562 | 99° | 113km/h | 14252m | 5.5m/s | 0°C | 0% | 0hPa | 0V | 00:00:00 | 00:00:00 | 00:00:00 | |
| 9A1FER-10 | 2026-09-05 12:15:20 | 45.94156 | 15.19109 | 102° | 91km/h | 14181m | 8.2m/s | 0°C | 0% | 0hPa | 0V | 00:00:00 | 00:00:00 | 00:00:00 | |
| 9A1FER-3 | 2026-09-05 12:15:17 | 45.94167 | 15.18960 | 89° | 100km/h | 14157m | 9.0m/s | 0°C | 0% | 0hPa | 0V | 00:00:00 | 00:00:00 | 00:00:00 | |
| 9A1FER-3 | 2026-09-05 12:15:01 | 45.94175 | 15.18409 | 94° | 99km/h | 14069m | 5.5m/s | 0°C | 0% | 0hPa | 0V | 00:00:00 | 00:00:00 | 00:00:00 | |
| 9A1FER-3 | 2026-09-05 12:14:46 | 45.94174 | 15.17867 | 91° | 86km/h | 13961m | 8.0m/s | 0°C | 0% | 0hPa | 0V | 00:00:00 | 00:00:00 | 00:00:00 | |
| 9A1FER-3 | 2026-09-05 12:14:31 | 45.94214 | 15.17398 | 91° | 91km/h | 13817m | 10.8m/s | 0°C | 0% | 0hPa | 0V | 00:00:00 | 00:00:00 | 00:00:00 | |
| 9A1FER-3 | 2026-09-05 12:14:16 | 45.94233 | 15.16898 | 98° | 88km/h | 13700m | 3.6m/s | 0°C | 0% | 0hPa | 0V | 00:00:00 | 00:00:00 | 00:00:00 | |
| 9A1FER-3 | 2026-09-05 12:14:01 | 45.94292 | 15.16431 | 98° | 97km/h | 13609m | 6.9m/s | 0°C | 0% | 0hPa | 0V | 00:00:00 | 00:00:00 | 00:00:00 | |
| 9A1FER-3 | 2026-09-05 12:13:46 | 45.94373 | 15.15928 | 114° | 84km/h | 13518m | 5.5m/s | 0°C | 0% | 0hPa | 0V | 00:00:00 | 00:00:00 | 00:00:00 | |
| 9A1FER-3 | 2026-09-05 12:13:31 | 45.94435 | 15.15478 | 110° | 78km/h | 13403m | 8.6m/s | 0°C | 0% | 0hPa | 0V | 00:00:00 | 00:00:00 | 00:00:00 | |
| 9A1FER-3 | 2026-09-05 12:13:16 | 45.94540 | 15.15079 | 118° | 82km/h | 13302m | 8.0m/s | 0°C | 0% | 0hPa | 0V | 00:00:00 | 00:00:00 | 00:00:00 | |
| 9A1FER-3 | 2026-09-05 12:13:01 | 45.94682 | 15.14698 | 121° | 86km/h | 13211m | 2.9m/s | 0°C | 0% | 0hPa | 0V | 00:00:00 | 00:00:00 | 00:00:00 | |
| 9A1FER-3 | 2026-09-05 12:12:46 | 45.94848 | 15.14296 | 129° | 91km/h | 13118m | 7.1m/s | 0°C | 0% | 0hPa | 0V | 00:00:00 | 00:00:00 | 00:00:00 | |
| 9A1FER-10 | 2026-09-05 12:12:38 | 45.94946 | 15.14079 | 129° | 95km/h | 13074m | 6.7m/s | 0°C | 0% | 0hPa | 0V | 00:00:00 | 00:00:00 | 00:00:00 | |
| 9A1FER-3 | 2026-09-05 12:12:31 | 45.95045 | 15.13899 | 141° | 106km/h | 13030m | 7.2m/s | 0°C | 0% | 0hPa | 0V | 00:00:00 | 00:00:00 | 00:00:00 | |
| 9A1FER-10 | 2026-09-05 12:12:23 | 45.95172 | 15.13683 | 127° | 111km/h | 12961m | 5.4m/s | 0°C | 0% | 0hPa | 0V | 00:00:00 | 00:00:00 | 00:00:00 | |
| 9A1FER-3 | 2026-09-05 12:12:16 | 45.95303 | 15.13490 | 133° | 115km/h | 12919m | 10.4m/s | 0°C | 0% | 0hPa | 0V | 00:00:00 | 00:00:00 | 00:00:00 | |
| 9A1FER-10 | 2026-09-05 12:12:08 | 45.95444 | 15.13242 | 131° | 119km/h | 12868m | 6.6m/s | 0°C | 0% | 0hPa | 0V | 00:00:00 | 00:00:00 | 00:00:00 | |
| 9A1FER-3 | 2026-09-05 12:12:01 | 45.95594 | 15.13029 | 140° | 133km/h | 12828m | 5.3m/s | 0°C | 0% | 0hPa | 0V | 00:00:00 | 00:00:00 | 00:00:00 | |
| 9A1FER-10 | 2026-09-05 12:11:53 | 45.95777 | 15.12741 | 130° | 130km/h | 12793m | 2.1m/s | 0°C | 0% | 0hPa | 0V | 00:00:00 | 00:00:00 | 00:00:00 | |
| 9A1FER-3 | 2026-09-05 12:11:46 | 45.95936 | 15.12499 | 125° | 131km/h | 12767m | 0.3m/s | 0°C | 0% | 0hPa | 0V | 00:00:00 | 00:00:00 | 00:00:00 | |
| 9A1FER-10 | 2026-09-05 12:11:38 | 45.96093 | 15.12192 | 125° | 135km/h | 12735m | 4.9m/s | 0°C | 0% | 0hPa | 0V | 00:00:00 | 00:00:00 | 00:00:00 | |
| 9A1FER-3 | 2026-09-05 12:11:31 | 45.96232 | 15.11920 | 125° | 135km/h | 12707m | 5.0m/s | 0°C | 0% | 0hPa | 0V | 00:00:00 | 00:00:00 | 00:00:00 | |
| 9A1FER-10 | 2026-09-05 12:11:19 | 45.96460 | 15.11430 | 123° | 133km/h | 12653m | 5.1m/s | 0°C | 0% | 0hPa | 0V | 00:00:00 | 00:00:00 | 00:00:00 | |
| 9A1FER-3 | 2026-09-05 12:11:16 | 45.96518 | 15.11305 | 125° | 133km/h | 12639m | 6.0m/s | 0°C | 0% | 0hPa | 0V | 00:00:00 | 00:00:00 | 00:00:00 | |
| 9A1FER-10 | 2026-09-05 12:11:03 | 45.96760 | 15.10774 | 125° | 133km/h | 12578m | 1.8m/s | 0°C | 0% | 0hPa | 0V | 00:00:00 | 00:00:00 | 00:00:00 | |
| 9A1FER-3 | 2026-09-05 12:11:01 | 45.96798 | 15.10696 | 126° | 135km/h | 12570m | 3.0m/s | 0°C | 0% | 0hPa | 0V | 00:00:00 | 00:00:00 | 00:00:00 | |
| 9A1FER-10 | 2026-09-05 12:10:48 | 45.97039 | 15.10164 | 124° | 137km/h | 12510m | 6.7m/s | 0°C | 0% | 0hPa | 0V | 00:00:00 | 00:00:00 | 00:00:00 | |
| 9A1FER-3 | 2026-09-05 12:10:46 | 45.97078 | 15.10077 | 121° | 137km/h | 12499m | 5.8m/s | 0°C | 0% | 0hPa | 0V | 00:00:00 | 00:00:00 | 00:00:00 | |
| 9A1FER-3 | 2026-09-05 12:10:30 | 45.97370 | 15.09406 | 124° | 135km/h | 12416m | 5.9m/s | 0°C | 0% | 0hPa | 0V | 00:00:00 | 00:00:00 | 00:00:00 | |
| 9A1FER-10 | 2026-09-05 12:10:11 | 45.97725 | 15.08614 | 119° | 131km/h | 12313m | 7.8m/s | 0°C | 0% | 0hPa | 0V | 00:00:00 | 00:00:00 | 00:00:00 | |
| 9A1FER-3 | 2026-09-05 12:10:00 | 45.97917 | 15.08154 | 120° | 128km/h | 12249m | 5.8m/s | 0°C | 0% | 0hPa | 0V | 00:00:00 | 00:00:00 | 00:00:00 | |
| 9A1FER-10 | 2026-09-05 12:09:55 | 45.97993 | 15.07954 | 122° | 128km/h | 12222m | 5.4m/s | 0°C | 0% | 0hPa | 0V | 00:00:00 | 00:00:00 | 00:00:00 | |
| 9A1FER-3 | 2026-09-05 12:09:45 | 45.98145 | 15.07547 | 118° | 128km/h | 12165m | 3.5m/s | 0°C | 0% | 0hPa | 0V | 00:00:00 | 00:00:00 | 00:00:00 | |
| 9A1FER-10 | 2026-09-05 12:09:36 | 45.98280 | 15.07176 | 117° | 128km/h | 12115m | 3.9m/s | 0°C | 0% | 0hPa | 0V | 00:00:00 | 00:00:00 | 00:00:00 | |
| 9A1FER-3 | 2026-09-05 12:09:30 | 45.98366 | 15.06930 | 117° | 128km/h | 12082m | 4.0m/s | 0°C | 0% | 0hPa | 0V | 00:00:00 | 00:00:00 | 00:00:00 | |
| 9A1FER-10 | 2026-09-05 12:09:21 | 45.98494 | 15.06558 | 118° | 130km/h | 12029m | 5.2m/s | 0°C | 0% | 0hPa | 0V | 00:00:00 | 00:00:00 | 00:00:00 | |
| 9A1FER-3 | 2026-09-05 12:09:15 | 45.98578 | 15.06304 | 112° | 130km/h | 11994m | 4.9m/s | 0°C | 0% | 0hPa | 0V | 00:00:00 | 00:00:00 | 00:00:00 | |
| 9A1FER-10 | 2026-09-05 12:09:06 | 45.98711 | 15.05874 | 114° | 130km/h | 11937m | 6.0m/s | 0°C | 0% | 0hPa | 0V | 00:00:00 | 00:00:00 | 00:00:00 | |
| 9A1FER-3 | 2026-09-05 12:08:59 | 45.98785 | 15.05612 | 115° | 128km/h | 11907m | 5.1m/s | 0°C | 0% | 0hPa | 0V | 00:00:00 | 00:00:00 | 00:00:00 | |
| 9A1FER-10 | 2026-09-05 12:08:48 | 45.98939 | 15.05145 | 115° | 122km/h | 11844m | 2.3m/s | 0°C | 0% | 0hPa | 0V | 00:00:00 | 00:00:00 | 00:00:00 | |
| 9A1FER-3 | 2026-09-05 12:08:44 | 45.98992 | 15.04983 | 117° | 126km/h | 11822m | 8.1m/s | 0°C | 0% | 0hPa | 0V | 00:00:00 | 00:00:00 | 00:00:00 | |
| 9A1FER-10 | 2026-09-05 12:08:33 | 45.99135 | 15.04531 | 115° | 122km/h | 11761m | 2.7m/s | 0°C | 0% | 0hPa | 0V | 00:00:00 | 00:00:00 | 00:00:00 | |
| 9A1FER-3 | 2026-09-05 12:08:29 | 45.99186 | 15.04357 | 113° | 122km/h | 11737m | 7.1m/s | 0°C | 0% | 0hPa | 0V | 00:00:00 | 00:00:00 | 00:00:00 | |
| OE3JTB-15 | 2026-09-05 12:08:26 | 45.99223 | 15.04238 | 115° | 119km/h | 11721m | 5.8m/s | 0°C | 0% | 0hPa | 0V | 00:00:00 | 00:00:00 | 00:00:00 | |
| 9A1FER-3 | 2026-09-05 12:08:14 | 45.99372 | 15.03753 | 115° | 119km/h | 11661m | 3.7m/s | 0°C | 0% | 0hPa | 0V | 00:00:00 | 00:00:00 | 00:00:00 | |
| 9A1FER-10 | 2026-09-05 12:07:59 | 45.99550 | 15.03158 | 111° | 115km/h | 11592m | 6.1m/s | 0°C | 0% | 0hPa | 0V | 00:00:00 | 00:00:00 | 00:00:00 | |
| OE3JTB-15 | 2026-09-05 12:07:55 | 45.99596 | 15.02998 | 116° | 115km/h | 11573m | 5.4m/s | 0°C | 0% | 0hPa | 0V | 00:00:00 | 00:00:00 | 00:00:00 | |
| OM5KV | 2026-09-05 12:07:54 | 45.99609 | 15.02961 | 116° | 111km/h | 11568m | 5.2m/s | 0°C | 0% | 0hPa | 0V | 00:00:00 | 00:00:00 | 00:00:00 | |
| OM5KV | 2026-09-05 12:07:48 | 45.99677 | 15.02726 | 113° | 120km/h | 11539m | 5.4m/s | 0°C | 0% | 0hPa | 0V | 00:00:00 | 00:00:00 | 00:00:00 | |
| 9A1FER-10 | 2026-09-05 12:07:44 | 45.99734 | 15.02537 | 117° | 117km/h | 11516m | 3.9m/s | 0°C | 0% | 0hPa | 0V | 00:00:00 | 00:00:00 | 00:00:00 | |
| OM5KV | 2026-09-05 12:07:42 | 45.99746 | 15.02499 | 116° | 117km/h | 11511m | 5.4m/s | 0°C | 0% | 0hPa | 0V | 00:00:00 | 00:00:00 | 00:00:00 | |
| OM5KV | 2026-09-05 12:07:37 | 45.99809 | 15.02262 | 111° | 113km/h | 11483m | 6.3m/s | 0°C | 0% | 0hPa | 0V | 00:00:00 | 00:00:00 | 00:00:00 | |
| OM5KV | 2026-09-05 12:07:31 | 45.99878 | 15.02033 | 112° | 119km/h | 11453m | 5.2m/s | 0°C | 0% | 0hPa | 0V | 00:00:00 | 00:00:00 | 00:00:00 | |
| 9A1FER-3 | 2026-09-05 12:07:29 | 45.99888 | 15.01993 | 109° | 113km/h | 11450m | 3.8m/s | 0°C | 0% | 0hPa | 0V | 00:00:00 | 00:00:00 | 00:00:00 | |
| OM5KV | 2026-09-05 12:07:26 | 45.99919 | 15.01877 | 113° | 111km/h | 11437m | 4.9m/s | 0°C | 0% | 0hPa | 0V | 00:00:00 | 00:00:00 | 00:00:00 | |
| OM5KV | 2026-09-05 12:07:17 | 46.00015 | 15.01532 | 109° | 115km/h | 11389m | 4.5m/s | 0°C | 0% | 0hPa | 0V | 00:00:00 | 00:00:00 | 00:00:00 | |
| 9A1FER-3 | 2026-09-05 12:07:14 | 46.00045 | 15.01418 | 114° | 111km/h | 11376m | 5.4m/s | 0°C | 0% | 0hPa | 0V | 00:00:00 | 00:00:00 | 00:00:00 | |
| 9A1FER-10 | 2026-09-05 12:07:13 | 46.00057 | 15.01380 | 115° | 111km/h | 11370m | 6.2m/s | 0°C | 0% | 0hPa | 0V | 00:00:00 | 00:00:00 | 00:00:00 | |
| OM5KV | 2026-09-05 12:07:09 | 46.00103 | 15.01232 | 114° | 113km/h | 11349m | 5.3m/s | 0°C | 0% | 0hPa | 0V | 00:00:00 | 00:00:00 | 00:00:00 | |
| 9A1FER-3 | 2026-09-05 12:06:59 | 46.00212 | 15.00858 | 114° | 111km/h | 11298m | 3.7m/s | 0°C | 0% | 0hPa | 0V | 00:00:00 | 00:00:00 | 00:00:00 | |
| 9A1FER-10 | 2026-09-05 12:06:57 | 46.00234 | 15.00783 | 113° | 108km/h | 11288m | 4.3m/s | 0°C | 0% | 0hPa | 0V | 00:00:00 | 00:00:00 | 00:00:00 | |
| 9A1FER-3 | 2026-09-05 12:06:44 | 46.00373 | 15.00302 | 112° | 108km/h | 11225m | 3.7m/s | 0°C | 0% | 0hPa | 0V | 00:00:00 | 00:00:00 | 00:00:00 | |
| 9A1FER-3 | 2026-09-05 12:06:29 | 46.00519 | 14.99751 | 115° | 106km/h | 11132m | 5.7m/s | 0°C | 0% | 0hPa | 0V | 00:00:00 | 00:00:00 | 00:00:00 | |
| 9A1FER-3 | 2026-09-05 12:06:14 | 46.00673 | 14.99215 | 111° | 104km/h | 11037m | 8.4m/s | 0°C | 0% | 0hPa | 0V | 00:00:00 | 00:00:00 | 00:00:00 | |
| 9A1FER-3 | 2026-09-05 12:05:59 | 46.00817 | 14.98683 | 114° | 104km/h | 10948m | 7.1m/s | 0°C | 0% | 0hPa | 0V | 00:00:00 | 00:00:00 | 00:00:00 | |
| 9A1FER-3 | 2026-09-05 12:05:44 | 46.00965 | 14.98158 | 112° | 104km/h | 10870m | 5.7m/s | 0°C | 0% | 0hPa | 0V | 00:00:00 | 00:00:00 | 00:00:00 | |
| 9A1FER-10 | 2026-09-05 12:05:43 | 46.00974 | 14.98122 | 111° | 102km/h | 10865m | 3.2m/s | 0°C | 0% | 0hPa | 0V | 00:00:00 | 00:00:00 | 00:00:00 | |
| OM5KV | 2026-09-05 12:05:39 | 46.01011 | 14.97979 | 113° | 108km/h | 10844m | 3.5m/s | 0°C | 0% | 0hPa | 0V | 00:00:00 | 00:00:00 | 00:00:00 | |
| OM5KV | 2026-09-05 12:05:38 | 46.01021 | 14.97943 | 114° | 102km/h | 10839m | 6.1m/s | 0°C | 0% | 0hPa | 0V | 00:00:00 | 00:00:00 | 00:00:00 | |
| 9A1FER-3 | 2026-09-05 12:05:29 | 46.01105 | 14.97628 | 112° | 102km/h | 10792m | 4.3m/s | 0°C | 0% | 0hPa | 0V | 00:00:00 | 00:00:00 | 00:00:00 | |
| OM5KV | 2026-09-05 12:05:28 | 46.01114 | 14.97594 | 112° | 100km/h | 10787m | 5.7m/s | 0°C | 0% | 0hPa | 0V | 00:00:00 | 00:00:00 | 00:00:00 | |
| 9A1FER-10 | 2026-09-05 12:05:27 | 46.01124 | 14.97560 | 112° | 102km/h | 10781m | 4.6m/s | 0°C | 0% | 0hPa | 0V | 00:00:00 | 00:00:00 | 00:00:00 | |
| OM5KV | 2026-09-05 12:05:22 | 46.01173 | 14.97385 | 113° | 108km/h | 10756m | 6.1m/s | 0°C | 0% | 0hPa | 0V | 00:00:00 | 00:00:00 | 00:00:00 | |
| OM5KV | 2026-09-05 12:05:21 | 46.01183 | 14.97349 | 113° | 104km/h | 10751m | 4.4m/s | 0°C | 0% | 0hPa | 0V | 00:00:00 | 00:00:00 | 00:00:00 | |
| OM5KV | 2026-09-05 12:05:17 | 46.01221 | 14.97211 | 113° | 99km/h | 10730m | 3.5m/s | 0°C | 0% | 0hPa | 0V | 00:00:00 | 00:00:00 | 00:00:00 | |
| 9A1FER-3 | 2026-09-05 12:05:14 | 46.01250 | 14.97109 | 114° | 102km/h | 10716m | 6.1m/s | 0°C | 0% | 0hPa | 0V | 00:00:00 | 00:00:00 | 00:00:00 | |
| 9A1FER-10 | 2026-09-05 12:05:12 | 46.01271 | 14.97040 | 113° | 102km/h | 10705m | 6.1m/s | 0°C | 0% | 0hPa | 0V | 00:00:00 | 00:00:00 | 00:00:00 | |
| OM5KV | 2026-09-05 12:05:10 | 46.01291 | 14.96969 | 113° | 104km/h | 10695m | 6.0m/s | 0°C | 0% | 0hPa | 0V | 00:00:00 | 00:00:00 | 00:00:00 | |
| OM5KV | 2026-09-05 12:05:06 | 46.01329 | 14.96830 | 113° | 99km/h | 10676m | 6.2m/s | 0°C | 0% | 0hPa | 0V | 00:00:00 | 00:00:00 | 00:00:00 | |
| OM5KV | 2026-09-05 12:05:05 | 46.01339 | 14.96797 | 114° | 99km/h | 10671m | 4.6m/s | 0°C | 0% | 0hPa | 0V | 00:00:00 | 00:00:00 | 00:00:00 | |
| 9A1FER-3 | 2026-09-05 12:04:59 | 46.01397 | 14.96594 | 111° | 100km/h | 10640m | 5.5m/s | 0°C | 0% | 0hPa | 0V | 00:00:00 | 00:00:00 | 00:00:00 | |
| 9A1FER-10 | 2026-09-05 12:04:57 | 46.01417 | 14.96527 | 113° | 102km/h | 10630m | 5.3m/s | 0°C | 0% | 0hPa | 0V | 00:00:00 | 00:00:00 | 00:00:00 | |
| OM5KV | 2026-09-05 12:04:54 | 46.01445 | 14.96428 | 116° | 102km/h | 10615m | 6.9m/s | 0°C | 0% | 0hPa | 0V | 00:00:00 | 00:00:00 | 00:00:00 | |
| OM5KV | 2026-09-05 12:04:53 | 46.01456 | 14.96395 | 117° | 104km/h | 10609m | 4.1m/s | 0°C | 0% | 0hPa | 0V | 00:00:00 | 00:00:00 | 00:00:00 | |
| OM5KV | 2026-09-05 12:04:49 | 46.01499 | 14.96263 | 116° | 100km/h | 10590m | 3.7m/s | 0°C | 0% | 0hPa | 0V | 00:00:00 | 00:00:00 | 00:00:00 | |
| OM5KV | 2026-09-05 12:04:48 | 46.01509 | 14.96229 | 112° | 100km/h | 10585m | 7.0m/s | 0°C | 0% | 0hPa | 0V | 00:00:00 | 00:00:00 | 00:00:00 | |
| 9A1FER-3 | 2026-09-05 12:04:44 | 46.01544 | 14.96088 | 114° | 102km/h | 10564m | 4.2m/s | 0°C | 0% | 0hPa | 0V | 00:00:00 | 00:00:00 | 00:00:00 | |
| 9A1FER-10 | 2026-09-05 12:04:42 | 46.01566 | 14.96019 | 116° | 104km/h | 10555m | 4.6m/s | 0°C | 0% | 0hPa | 0V | 00:00:00 | 00:00:00 | 00:00:00 | |
| OM5KV | 2026-09-05 12:04:31 | 46.01671 | 14.95642 | 114° | 106km/h | 10498m | 5.4m/s | 0°C | 0% | 0hPa | 0V | 00:00:00 | 00:00:00 | 00:00:00 | |
| 9A1FER-3 | 2026-09-05 12:04:29 | 46.01692 | 14.95573 | 113° | 100km/h | 10488m | 6.8m/s | 0°C | 0% | 0hPa | 0V | 00:00:00 | 00:00:00 | 00:00:00 | |
| OM5KV | 2026-09-05 12:04:24 | 46.01739 | 14.95406 | 115° | 104km/h | 10463m | 5.6m/s | 0°C | 0% | 0hPa | 0V | 00:00:00 | 00:00:00 | 00:00:00 | |
| OM5KV | 2026-09-05 12:04:23 | 46.01749 | 14.95372 | 114° | 100km/h | 10456m | 6.2m/s | 0°C | 0% | 0hPa | 0V | 00:00:00 | 00:00:00 | 00:00:00 | |
| 9A1FER-10 | 2026-09-05 12:04:20 | 46.01779 | 14.95271 | 114° | 100km/h | 10441m | 3.8m/s | 0°C | 0% | 0hPa | 0V | 00:00:00 | 00:00:00 | 00:00:00 | |
| OM5KV | 2026-09-05 12:04:18 | 46.01798 | 14.95204 | 112° | 99km/h | 10431m | 3.6m/s | 0°C | 0% | 0hPa | 0V | 00:00:00 | 00:00:00 | 00:00:00 | |
| 9A1FER-3 | 2026-09-05 12:04:14 | 46.01833 | 14.95064 | 111° | 99km/h | 10411m | 5.0m/s | 0°C | 0% | 0hPa | 0V | 00:00:00 | 00:00:00 | 00:00:00 | |
| OM5KV | 2026-09-05 12:04:12 | 46.01852 | 14.94994 | 112° | 100km/h | 10401m | 5.5m/s | 0°C | 0% | 0hPa | 0V | 00:00:00 | 00:00:00 | 00:00:00 | |
| OM5KV | 2026-09-05 12:04:10 | 46.01869 | 14.94928 | 112° | 95km/h | 10391m | 4.9m/s | 0°C | 0% | 0hPa | 0V | 00:00:00 | 00:00:00 | 00:00:00 | |
| OM5KV | 2026-09-05 12:04:06 | 46.01907 | 14.94794 | 113° | 104km/h | 10371m | 6.2m/s | 0°C | 0% | 0hPa | 0V | 00:00:00 | 00:00:00 | 00:00:00 | |
| 9A1FER-10 | 2026-09-05 12:04:02 | 46.01944 | 14.94655 | 111° | 100km/h | 10351m | 5.7m/s | 0°C | 0% | 0hPa | 0V | 00:00:00 | 00:00:00 | 00:00:00 | |
| OM5KV | 2026-09-05 12:04:01 | 46.01953 | 14.94621 | 112° | 99km/h | 10346m | 3.6m/s | 0°C | 0% | 0hPa | 0V | 00:00:00 | 00:00:00 | 00:00:00 | |
| OM5KV | 2026-09-05 12:03:57 | 46.01990 | 14.94488 | 115° | 102km/h | 10327m | 5.6m/s | 0°C | 0% | 0hPa | 0V | 00:00:00 | 00:00:00 | 00:00:00 | |
| OM5KV | 2026-09-05 12:03:56 | 46.01999 | 14.94453 | 113° | 102km/h | 10321m | 5.2m/s | 0°C | 0% | 0hPa | 0V | 00:00:00 | 00:00:00 | 00:00:00 | |
| OM5KV | 2026-09-05 12:03:51 | 46.02047 | 14.94282 | 111° | 99km/h | 10298m | 4.0m/s | 0°C | 0% | 0hPa | 0V | 00:00:00 | 00:00:00 | 00:00:00 | |
| 9A1FER-10 | 2026-09-05 12:03:47 | 46.02083 | 14.94149 | 113° | 99km/h | 10279m | 4.2m/s | 0°C | 0% | 0hPa | 0V | 00:00:00 | 00:00:00 | 00:00:00 | |
| OM5KV | 2026-09-05 12:03:46 | 46.02093 | 14.94116 | 116° | 100km/h | 10274m | 4.7m/s | 0°C | 0% | 0hPa | 0V | 00:00:00 | 00:00:00 | 00:00:00 | |
| OM5KV | 2026-09-05 12:03:45 | 46.02104 | 14.94083 | 116° | 102km/h | 10270m | 3.6m/s | 0°C | 0% | 0hPa | 0V | 00:00:00 | 00:00:00 | 00:00:00 | |
| 9A1FER-3 | 2026-09-05 12:03:43 | 46.02124 | 14.94015 | 111° | 99km/h | 10261m | 4.0m/s | 0°C | 0% | 0hPa | 0V | 00:00:00 | 00:00:00 | 00:00:00 | |
| OM5KV | 2026-09-05 12:03:40 | 46.02150 | 14.93913 | 109° | 99km/h | 10247m | 7.1m/s | 0°C | 0% | 0hPa | 0V | 00:00:00 | 00:00:00 | 00:00:00 | |
| OM5KV | 2026-09-05 12:03:37 | 46.02176 | 14.93815 | 117° | 97km/h | 10232m | 4.6m/s | 0°C | 0% | 0hPa | 0V | 00:00:00 | 00:00:00 | 00:00:00 | |
| OM5KV | 2026-09-05 12:03:34 | 46.02207 | 14.93717 | 113° | 99km/h | 10218m | 4.3m/s | 0°C | 0% | 0hPa | 0V | 00:00:00 | 00:00:00 | 00:00:00 | |
| OM5KV | 2026-09-05 12:03:33 | 46.02217 | 14.93684 | 115° | 99km/h | 10213m | 5.7m/s | 0°C | 0% | 0hPa | 0V | 00:00:00 | 00:00:00 | 00:00:00 | |
| 9A1FER-3 | 2026-09-05 12:03:28 | 46.02263 | 14.93514 | 113° | 99km/h | 10189m | 4.6m/s | 0°C | 0% | 0hPa | 0V | 00:00:00 | 00:00:00 | 00:00:00 | |
| 9A1FER-10 | 2026-09-05 12:03:27 | 46.02273 | 14.93480 | 112° | 100km/h | 10184m | 5.3m/s | 0°C | 0% | 0hPa | 0V | 00:00:00 | 00:00:00 | 00:00:00 | |
| OM5KV | 2026-09-05 12:03:26 | 46.02282 | 14.93447 | 115° | 99km/h | 10179m | 4.9m/s | 0°C | 0% | 0hPa | 0V | 00:00:00 | 00:00:00 | 00:00:00 | |
| OM5KV | 2026-09-05 12:03:23 | 46.02313 | 14.93351 | 113° | 97km/h | 10164m | 4.6m/s | 0°C | 0% | 0hPa | 0V | 00:00:00 | 00:00:00 | 00:00:00 | |
| OM5KV | 2026-09-05 12:03:17 | 46.02371 | 14.93147 | 114° | 99km/h | 10136m | 4.0m/s | 0°C | 0% | 0hPa | 0V | 00:00:00 | 00:00:00 | 00:00:00 | |
| OM5KV | 2026-09-05 12:03:16 | 46.02380 | 14.93114 | 113° | 99km/h | 10131m | 4.9m/s | 0°C | 0% | 0hPa | 0V | 00:00:00 | 00:00:00 | 00:00:00 | |
| OM5KV | 2026-09-05 12:03:14 | 46.02400 | 14.93049 | 116° | 97km/h | 10121m | 4.4m/s | 0°C | 0% | 0hPa | 0V | 00:00:00 | 00:00:00 | 00:00:00 | |
| 9A1FER-3 | 2026-09-05 12:03:13 | 46.02410 | 14.93017 | 115° | 99km/h | 10117m | 5.1m/s | 0°C | 0% | 0hPa | 0V | 00:00:00 | 00:00:00 | 00:00:00 | |
| OM5KV | 2026-09-05 12:03:10 | 46.02439 | 14.92918 | 113° | 97km/h | 10103m | 4.0m/s | 0°C | 0% | 0hPa | 0V | 00:00:00 | 00:00:00 | 00:00:00 | |
| 9A1FER-10 | 2026-09-05 12:03:07 | 46.02467 | 14.92817 | 114° | 99km/h | 10090m | 5.0m/s | 0°C | 0% | 0hPa | 0V | 00:00:00 | 00:00:00 | 00:00:00 | |
| OM5KV | 2026-09-05 12:03:04 | 46.02498 | 14.92716 | 115° | 100km/h | 10077m | 3.3m/s | 0°C | 0% | 0hPa | 0V | 00:00:00 | 00:00:00 | 00:00:00 | |
| OM5KV | 2026-09-05 12:03:03 | 46.02509 | 14.92684 | 117° | 97km/h | 10072m | 6.2m/s | 0°C | 0% | 0hPa | 0V | 00:00:00 | 00:00:00 | 00:00:00 | |
| 9A1FER-3 | 2026-09-05 12:02:58 | 46.02557 | 14.92523 | 112° | 99km/h | 10049m | 2.9m/s | 0°C | 0% | 0hPa | 0V | 00:00:00 | 00:00:00 | 00:00:00 | |
| OM5KV | 2026-09-05 12:02:57 | 46.02566 | 14.92489 | 111° | 100km/h | 10044m | 6.3m/s | 0°C | 0% | 0hPa | 0V | 00:00:00 | 00:00:00 | 00:00:00 | |
| OM5KV | 2026-09-05 12:02:53 | 46.02605 | 14.92351 | 112° | 100km/h | 10026m | 4.9m/s | 0°C | 0% | 0hPa | 0V | 00:00:00 | 00:00:00 | 00:00:00 | |
| 9A1FER-10 | 2026-09-05 12:02:51 | 46.02624 | 14.92285 | 116° | 95km/h | 10017m | 4.5m/s | 0°C | 0% | 0hPa | 0V | 00:00:00 | 00:00:00 | 00:00:00 | |
| OM5KV | 2026-09-05 12:02:47 | 46.02663 | 14.92157 | 113° | 102km/h | 9999m | 4.8m/s | 0°C | 0% | 0hPa | 0V | 00:00:00 | 00:00:00 | 00:00:00 | |
| OM5KV | 2026-09-05 12:02:44 | 46.02689 | 14.92055 | 112° | 100km/h | 9985m | 5.7m/s | 0°C | 0% | 0hPa | 0V | 00:00:00 | 00:00:00 | 00:00:00 | |
| OM5KV | 2026-09-05 12:02:41 | 46.02718 | 14.91955 | 115° | 99km/h | 9970m | 3.6m/s | 0°C | 0% | 0hPa | 0V | 00:00:00 | 00:00:00 | 00:00:00 | |
| OM5KV | 2026-09-05 12:02:40 | 46.02729 | 14.91922 | 117° | 102km/h | 9966m | 5.0m/s | 0°C | 0% | 0hPa | 0V | 00:00:00 | 00:00:00 | 00:00:00 | |
| OM5KV | 2026-09-05 12:02:37 | 46.02759 | 14.91823 | 111° | 95km/h | 9954m | 3.1m/s | 0°C | 0% | 0hPa | 0V | 00:00:00 | 00:00:00 | 00:00:00 | |
| OM5KV | 2026-09-05 12:02:34 | 46.02786 | 14.91722 | 112° | 100km/h | 9941m | 6.3m/s | 0°C | 0% | 0hPa | 0V | 00:00:00 | 00:00:00 | 00:00:00 | |
| OM5KV | 2026-09-05 12:02:31 | 46.02816 | 14.91623 | 116° | 102km/h | 9928m | 3.7m/s | 0°C | 0% | 0hPa | 0V | 00:00:00 | 00:00:00 | 00:00:00 | |
| 9A1FER-3 | 2026-09-05 12:02:28 | 46.02846 | 14.91524 | 114° | 97km/h | 9915m | 5.3m/s | 0°C | 0% | 0hPa | 0V | 00:00:00 | 00:00:00 | 00:00:00 | |
| OM5KV | 2026-09-05 12:02:27 | 46.02856 | 14.91492 | 113° | 97km/h | 9911m | 5.2m/s | 0°C | 0% | 0hPa | 0V | 00:00:00 | 00:00:00 | 00:00:00 | |
| OM5KV | 2026-09-05 12:02:24 | 46.02883 | 14.91393 | 114° | 99km/h | 9897m | 3.7m/s | 0°C | 0% | 0hPa | 0V | 00:00:00 | 00:00:00 | 00:00:00 | |
| OM5KV | 2026-09-05 12:02:22 | 46.02903 | 14.91327 | 113° | 99km/h | 9889m | 3.4m/s | 0°C | 0% | 0hPa | 0V | 00:00:00 | 00:00:00 | 00:00:00 | |
| 9A1FER-10 | 2026-09-05 12:02:13 | 46.02994 | 14.91046 | 117° | 97km/h | 9850m | 4.1m/s | 0°C | 0% | 0hPa | 0V | 00:00:00 | 00:00:00 | 00:00:00 | |
| OM5KV | 2026-09-05 12:02:09 | 46.03033 | 14.90917 | 117° | 99km/h | 9832m | 3.9m/s | 0°C | 0% | 0hPa | 0V | 00:00:00 | 00:00:00 | 00:00:00 | |
| 9A1FER-3 | 2026-09-05 12:01:58 | 46.03148 | 14.90561 | 115° | 95km/h | 9782m | 4.1m/s | 0°C | 0% | 0hPa | 0V | 00:00:00 | 00:00:00 | 00:00:00 | |
| OM5KV | 2026-09-05 12:01:56 | 46.03168 | 14.90499 | 115° | 95km/h | 9775m | 4.7m/s | 0°C | 0% | 0hPa | 0V | 00:00:00 | 00:00:00 | 00:00:00 | |
| 9A1FER-10 | 2026-09-05 12:01:53 | 46.03200 | 14.90406 | 118° | 97km/h | 9763m | 2.9m/s | 0°C | 0% | 0hPa | 0V | 00:00:00 | 00:00:00 | 00:00:00 | |
| OM5KV | 2026-09-05 12:01:49 | 46.03243 | 14.90281 | 118° | 95km/h | 9746m | 4.3m/s | 0°C | 0% | 0hPa | 0V | 00:00:00 | 00:00:00 | 00:00:00 | |
| 9A1FER-3 | 2026-09-05 12:01:43 | 46.03307 | 14.90097 | 115° | 97km/h | 9723m | 2.9m/s | 0°C | 0% | 0hPa | 0V | 00:00:00 | 00:00:00 | 00:00:00 | |
| 9A1FER-10 | 2026-09-05 12:01:36 | 46.03385 | 14.89878 | 115° | 97km/h | 9694m | 5.9m/s | 0°C | 0% | 0hPa | 0V | 00:00:00 | 00:00:00 | 00:00:00 | |
| OM5KV | 2026-09-05 12:01:31 | 46.03437 | 14.89721 | 116° | 95km/h | 9672m | 4.3m/s | 0°C | 0% | 0hPa | 0V | 00:00:00 | 00:00:00 | 00:00:00 | |
| 9A1FER-3 | 2026-09-05 12:01:28 | 46.03469 | 14.89628 | 116° | 97km/h | 9659m | 3.8m/s | 0°C | 0% | 0hPa | 0V | 00:00:00 | 00:00:00 | 00:00:00 | |
| OM5KV | 2026-09-05 12:01:24 | 46.03514 | 14.89500 | 116° | 100km/h | 9641m | 3.1m/s | 0°C | 0% | 0hPa | 0V | 00:00:00 | 00:00:00 | 00:00:00 | |
| OM5KV | 2026-09-05 12:01:19 | 46.03579 | 14.89313 | 121° | 95km/h | 9617m | 4.6m/s | 0°C | 0% | 0hPa | 0V | 00:00:00 | 00:00:00 | 00:00:00 | |
| 9A1FER-3 | 2026-09-05 12:01:13 | 46.03637 | 14.89163 | 119° | 95km/h | 9595m | 4.2m/s | 0°C | 0% | 0hPa | 0V | 00:00:00 | 00:00:00 | 00:00:00 | |
| OM5KV | 2026-09-05 12:01:12 | 46.03648 | 14.89132 | 119° | 97km/h | 9591m | 4.4m/s | 0°C | 0% | 0hPa | 0V | 00:00:00 | 00:00:00 | 00:00:00 | |
| 9A1FER-10 | 2026-09-05 12:01:07 | 46.03705 | 14.88977 | 118° | 95km/h | 9570m | 5.2m/s | 0°C | 0% | 0hPa | 0V | 00:00:00 | 00:00:00 | 00:00:00 | |
| 9A1FER-3 | 2026-09-05 12:00:58 | 46.03809 | 14.88713 | 120° | 95km/h | 9532m | 4.5m/s | 0°C | 0% | 0hPa | 0V | 00:00:00 | 00:00:00 | 00:00:00 | |
| 9A1FER-10 | 2026-09-05 12:00:52 | 46.03879 | 14.88530 | 119° | 93km/h | 9508m | 4.8m/s | 0°C | 0% | 0hPa | 0V | 00:00:00 | 00:00:00 | 00:00:00 | |
| 9A1FER-3 | 2026-09-05 12:00:43 | 46.03983 | 14.88264 | 114° | 93km/h | 9473m | 4.9m/s | 0°C | 0% | 0hPa | 0V | 00:00:00 | 00:00:00 | 00:00:00 | |
| 9A1FER-10 | 2026-09-05 12:00:35 | 46.04072 | 14.88032 | 116° | 91km/h | 9437m | 1.9m/s | 0°C | 0% | 0hPa | 0V | 00:00:00 | 00:00:00 | 00:00:00 | |
| 9A1FER-3 | 2026-09-05 11:59:18 | 46.04817 | 14.85746 | 112° | 88km/h | 9084m | 1.9m/s | 0°C | 0% | 0hPa | 0V | 00:00:00 | 00:00:00 | 00:00:00 | |
| 9A1FER-3 | 2026-09-05 11:58:57 | 46.04953 | 14.85111 | 109° | 89km/h | 8982m | 2.7m/s | 0°C | 0% | 0hPa | 0V | 00:00:00 | 00:00:00 | 00:00:00 | |
| 9A1FER-3 | 2026-09-05 11:58:33 | 46.05123 | 14.84354 | 108° | 95km/h | 8884m | 5.8m/s | 0°C | 0% | 0hPa | 0V | 00:00:00 | 00:00:00 | 00:00:00 | |
| 9A1FER-3 | 2026-09-05 11:58:12 | 46.05263 | 14.83659 | 105° | 99km/h | 8793m | 5.0m/s | 0°C | 0% | 0hPa | 0V | 00:00:00 | 00:00:00 | 00:00:00 | |
| 9A1FER-3 | 2026-09-05 11:56:40 | 46.05904 | 14.80558 | 106° | 91km/h | 8398m | 4.1m/s | 0°C | 0% | 0hPa | 0V | 00:00:00 | 00:00:00 | 00:00:00 | |
| 9A1FER-3 | 2026-09-05 11:56:25 | 46.05993 | 14.80077 | 104° | 89km/h | 8331m | 4.2m/s | 0°C | 0% | 0hPa | 0V | 00:00:00 | 00:00:00 | 00:00:00 | |
| 9A1FER-3 | 2026-09-05 11:56:08 | 46.06074 | 14.79530 | 99° | 89km/h | 8256m | 4.4m/s | 0°C | 0% | 0hPa | 0V | 00:00:00 | 00:00:00 | 00:00:00 | |
| 9A1FER-3 | 2026-09-05 11:55:53 | 46.06144 | 14.79048 | 102° | 91km/h | 8192m | 4.6m/s | 0°C | 0% | 0hPa | 0V | 00:00:00 | 00:00:00 | 00:00:00 | |
| 9A1FER-3 | 2026-09-05 11:55:38 | 46.06218 | 14.78562 | 103° | 91km/h | 8132m | 2.8m/s | 0°C | 0% | 0hPa | 0V | 00:00:00 | 00:00:00 | 00:00:00 | |
| 9A1FER-3 | 2026-09-05 11:55:21 | 46.06298 | 14.78012 | 99° | 89km/h | 8063m | 3.1m/s | 0°C | 0% | 0hPa | 0V | 00:00:00 | 00:00:00 | 00:00:00 | |
| 9A1FER-3 | 2026-09-05 11:55:06 | 46.06366 | 14.77533 | 103° | 91km/h | 8000m | 5.3m/s | 0°C | 0% | 0hPa | 0V | 00:00:00 | 00:00:00 | 00:00:00 | |
| 9A1FER-3 | 2026-09-05 11:54:51 | 46.06438 | 14.77040 | 102° | 91km/h | 7939m | 4.5m/s | 0°C | 0% | 0hPa | 0V | 00:00:00 | 00:00:00 | 00:00:00 | |
| 9A1FER-3 | 2026-09-05 11:54:36 | 46.06509 | 14.76551 | 103° | 91km/h | 7876m | 4.6m/s | 0°C | 0% | 0hPa | 0V | 00:00:00 | 00:00:00 | 00:00:00 | |
| 9A1FER-3 | 2026-09-05 11:54:06 | 46.06649 | 14.75573 | 103° | 91km/h | 7750m | 4.5m/s | 0°C | 0% | 0hPa | 0V | 00:00:00 | 00:00:00 | 00:00:00 | |
| 9A1FER-3 | 2026-09-05 11:53:51 | 46.06713 | 14.75084 | 102° | 91km/h | 7691m | 4.8m/s | 0°C | 0% | 0hPa | 0V | 00:00:00 | 00:00:00 | 00:00:00 | |
| 9A1FER-3 | 2026-09-05 11:53:36 | 46.06768 | 14.74599 | 98° | 91km/h | 7630m | 4.2m/s | 0°C | 0% | 0hPa | 0V | 00:00:00 | 00:00:00 | 00:00:00 | |
| 9A1FER-3 | 2026-09-05 11:53:21 | 46.06808 | 14.74109 | 98° | 93km/h | 7567m | 3.6m/s | 0°C | 0% | 0hPa | 0V | 00:00:00 | 00:00:00 | 00:00:00 | |
| 9A1FER-3 | 2026-09-05 11:53:06 | 46.06851 | 14.73610 | 102° | 91km/h | 7504m | 3.4m/s | 0°C | 0% | 0hPa | 0V | 00:00:00 | 00:00:00 | 00:00:00 | |
| 9A1FER-3 | 2026-09-05 11:52:51 | 46.06892 | 14.73119 | 99° | 89km/h | 7444m | 3.2m/s | 0°C | 0% | 0hPa | 0V | 00:00:00 | 00:00:00 | 00:00:00 |